Location: ??
(35.7773°N, 139.5033°E)
Time: 09:25:44
(UTC+00:00)

Daily predictions for brighter satellites

Satellite Brightness Start Highest point End
(mag) Time Altitude Azimuth Time Altitude Azimuth Time Altitude Azimuth
STARLINK-1091 3.5 12:01:20 10° NW 12:05:29 75° NE 12:05:52 68° E
STARLINK-1072 3.4 12:06:19 10° NW 12:10:28 84° NE 12:10:39 80° E
STARLINK-1096 3.5 12:11:18 10° NW 12:15:27 87° WSW 12:15:27 87° WSW
Cosmos 1741 Rocket 4.2 12:11:26 10° NNW 12:16:36 65° WSW 12:18:00 46° SSW
USA 245 4.2 12:19:45 34° WNW 12:19:45 34° WNW 12:21:53 10° NNW
STARLINK-1079 3.6 12:16:17 10° NW 12:20:13 76° W 12:20:13 76° W
Resurs 01 Rocket 3.9 12:20:25 12° SW 12:22:58 19° W 12:26:07 10° NW
SPOT 1/Viking Rocket 3.6 12:22:08 50° SSW 12:23:25 71° WSW 12:28:34 10° NNW
ASTRO E2 4.5 12:19:51 10° WSW 12:21:31 22° WSW 12:21:31 22° WSW
Spot 2 Rocket 4.2 12:23:07 34° SSW 12:24:45 46° W 12:29:36 10° NNW
Okean 2 3.8 12:25:34 53° NE 12:25:34 53° NE 12:28:58 10° NNE
STARLINK-1116 3.8 12:21:16 10° NW 12:25:00 65° W 12:25:00 65° W
Terra 2.0 12:29:57 57° ENE 12:29:59 57° ENE 12:34:39 10° N
CENTAUR R/B 4.4 12:23:27 10° NNW 12:30:32 31° NE 12:35:22 19° E
Okean 1 Rocket 3.3 12:27:15 10° NNW 12:31:38 62° W 12:31:54 61° WSW
COSMOS 2455 4.4 12:34:18 20° ENE 12:34:18 20° ENE 12:36:51 10° NE
Cosmos 1092 Rocket 3.8 12:32:27 51° S 12:34:09 88° E 12:40:19 10° N
STARLINK-1094 4.3 12:31:16 10° NW 12:34:34 47° W 12:34:34 47° W
Meteor 1-21 4.5 12:36:19 49° E 12:36:19 49° E 12:41:35 10° NNE
Cosmos 1455 Rocket 4.2 12:33:38 10° N 12:36:41 32° NE 12:36:41 32° NE
NOSS 3-4 (A) 3.8 12:39:46 43° E 12:39:46 43° E 12:44:38 10° NE
NOSS 3-4 (C) 3.8 12:39:55 42° E 12:39:55 42° E 12:44:44 10° NE
Cosmos 1805 3.9 12:37:37 10° N 12:40:44 54° NNW 12:40:44 54° NNW
CARTOSAT-1 3.9 12:42:16 61° W 12:42:16 61° W 12:46:20 10° NNW
Cosmos 1627 Rocket 4.4 12:46:44 60° S 12:48:01 88° E 12:54:25 10° N
SL-4 R/B 2.9 12:44:16 10° WSW 12:48:56 59° NW 12:53:43 10° NE
Cosmos 2195 Rocket 4.5 12:48:05 54° SSW 12:49:37 81° W 12:55:56 10° N
Cosmos 1302 Rocket 4.4 12:49:26 48° WSW 12:50:40 62° WNW 12:55:56 10° N
Cosmos 1842 4.4 12:52:32 41° N 12:52:32 41° N 12:55:11 10° N
BREEZE-M DEB (TANK) 3.6 12:39:57 10° SW 12:51:23 55° S 12:51:23 55° S
Cosmos 1428 Rocket 4.4 12:54:10 67° S 12:55:06 87° E 13:01:25 10° N
ATLAS 2AS CENTAUR R/B 2.9 13:03:57 47° SSW 13:06:38 84° ESE 13:14:40 10° NNE
Lacrosse 5 3.7 13:03:11 10° WNW 13:06:07 19° WSW 13:06:07 19° WSW
Cosmos 1943 Rocket 3.3 13:04:41 23° WSW 13:07:36 39° WNW 13:12:48 10° N
Cosmos 1992 Rocket 4.3 13:15:38 59° NNE 13:15:38 59° NNE 13:19:52 10° NNE
NOSS 3-2 (A) 4.0 13:08:36 10° NNW 13:16:28 84° ENE 13:18:17 60° SE
Cosmos 2082 Rocket 4.4 13:14:23 10° WNW 13:17:15 14° W 13:18:35 13° WSW
Cosmos 2026 Rocket 4.5 13:17:47 46° WSW 13:19:06 54° W 13:25:19 10° N
Cosmos 2369 Rocket 3.2 13:20:32 32° WSW 13:22:22 42° WNW 13:27:44 10° N
SeaSat 1 2.9 13:21:55 10° NNE 13:25:45 55° NNE 13:25:45 55° NNE
USA 238 DEB 3.7 13:20:37 10° NNW 13:27:57 84° WSW 13:28:43 74° S
USA 238 3.7 13:20:43 10° NNW 13:28:04 85° WSW 13:28:50 74° SSE
Cosmos 1553 Rocket 3.9 13:22:17 10° N 13:28:28 82° ENE 13:28:28 82° ENE
ATLAS 5 CENTAUR R/B 4.1 13:21:07 10° SW 13:31:29 19° NNE 13:32:17 10° NNE
Cosmos 1655 Rocket 3.9 13:30:26 76° ENE 13:30:26 76° ENE 13:36:26 10° N
Milstar 3 Cent rocket 4.5 13:22:26 10° WSW 13:33:14 61° SSE 13:57:05 10° E
Cosmos 1656 Rocket 3.9 13:38:14 64° NW 13:38:14 64° NW 13:43:36 10° NNE
Thor Agena Rocket 4.1 13:39:28 10° N 13:44:14 55° NW 13:44:14 55° NW
Cosmos 2266 Rocket 4.0 13:50:57 72° NNE 13:50:57 72° NNE 13:56:24 10° N
ATLAS CENTAUR R/B 3.3 13:58:59 29° N 13:58:59 29° N 14:01:25 10° NNE
Cosmos 968 Rocket 4.4 13:53:53 10° NNW 13:57:31 43° NW 13:57:31 43° NW
Terra 4.3 14:08:50 12° W 14:08:50 12° W 14:09:59 10° WNW
Exosat Rocket 4.3 14:01:12 10° NNW 14:09:49 72° ENE 14:10:05 71° E
COSMOS 2455 3.5 14:17:23 46° WNW 14:17:45 47° WNW 14:23:32 10° NNE
CENTAUR R/B 3.1 14:13:36 10° NW 14:21:56 71° WSW 14:22:31 69° SW
ATLAS 3B R/B 2.9 14:17:45 10° NNW 14:24:33 62° ENE 14:25:05 60° ENE
BREEZE-M R/B 4.2 14:25:15 67° WNW 14:25:46 70° NW 14:30:20 10° NE
NOSS 3-2 (C) 4.2 14:18:08 10° NW 14:25:53 58° WSW 14:25:56 58° WSW
Cosmos 2297 Rocket 4.2 14:32:37 10° N 14:36:36 19° NE 14:38:12 17° ENE
Meteor 2-5 Rocket 4.2 14:41:54 56° N 14:41:54 56° N 14:46:19 10° N
SJ 16-02 4.1 14:40:42 10° NE 14:42:19 12° ENE 14:42:24 12° ENE
Cosmos 2315 Rocket 4.4 14:47:29 10° NNW 14:52:45 54° WNW 14:52:45 54° WNW
Cosmos 1697 Rocket 4.2 15:04:11 27° ENE 15:04:11 27° ENE 15:07:44 10° NE
Cosmos 2227 Rocket 3.5 15:08:38 10° N 15:13:43 33° ENE 15:14:38 31° E
Nadezhda 1 Rocket 4.1 15:18:25 10° N 15:24:31 69° ENE 15:24:31 69° ENE
FALCON 9 R/B 2.7 15:25:22 82° S 15:25:22 82° S 15:40:54 10° E
CZ-4C R/B 2.6 15:35:42 53° NE 15:35:42 53° NE 15:40:00 10° NNE
ATLAS CENTAUR R/B 3.9 15:38:38 10° N 15:41:34 29° NE 15:47:24 10° ESE
USA 215 3.3 15:43:45 64° W 15:43:45 64° W 15:49:32 10° NW
Cosmos 1763 Rocket 3.9 15:45:29 57° NNE 15:45:29 57° NNE 15:49:30 10° NNE
Cosmos 2369 3.7 15:56:01 76° NE 15:56:01 76° NE 16:01:14 10° NNE
Cosmos 1745 Rocket 4.4 15:56:55 48° WNW 15:56:55 48° WNW 16:02:35 10° N
Cosmos 1980 Rocket 2.7 15:58:24 47° E 15:58:24 47° E 16:03:32 10° NNE
Meteor 2-1 Rocket 4.3 15:52:46 10° N 15:57:44 72° NNW 15:57:44 72° NNW
Resurs 1-4 Rocket 2.5 15:56:44 10° NNE 16:01:45 55° E 16:01:45 55° E
Cosmos 2360 4.2 16:05:47 76° E 16:05:47 76° E 16:11:19 10° NNE
MOZ.5/SAFIR/RUBIN 5/SL-8 4.1 16:13:59 63° NNE 16:13:59 63° NNE 16:18:00 10° N
CZ-2D R/B 2.1 16:09:27 10° NNE 16:14:34 71° E 16:14:34 71° E
ATLAS 3B R/B 4.3 16:09:31 10° WNW 16:12:18 19° W 16:12:18 19° W
Cosmos 2219 4.0 16:10:47 10° NNW 16:14:46 39° WNW 16:14:46 39° WNW
SL-16 R/B 2.6 16:18:57 50° SE 16:20:36 72° ENE 16:26:45 10° N
Cosmos 2297 Rocket 2.6 16:15:29 10° NNW 16:19:57 48° WNW 16:19:57 48° WNW
SJ 16-02 2.7 16:16:54 10° NNW 16:19:21 31° NW 16:19:21 31° NW
Cosmos 2181 Rocket 4.0 16:18:54 10° N 16:25:23 80° E 16:26:56 55° SSE
GP-B 3.5 16:21:16 10° N 16:25:11 62° NE 16:25:11 62° NE
Cosmos 2082 3.6 16:25:04 10° NNW 16:30:44 85° ENE 16:31:35 66° SSE
Meteor 2-10 Rocket 3.9 16:25:54 10° NNW 16:30:11 51° WNW 16:30:11 51° WNW
Cosmos 2322 Rocket 4.0 16:31:26 17° SE 16:33:30 20° E 16:37:31 10° NE
Cosmos 2278 3.7 16:33:56 64° W 16:34:20 67° WNW 16:39:58 10° NNE
Cosmos 540 Rocket 3.5 16:35:40 64° WNW 16:35:40 64° WNW 16:40:44 10° N
Cosmos 1953 Rocket 3.9 16:37:29 60° NNW 16:37:29 60° NNW 16:41:16 10° N
ARIANE 5 R/B 4.2 16:33:09 10° NE 16:37:07 23° E 16:39:02 19° SE
Cosmos 1937 Rocket 3.3 16:31:54 10° NNW 16:37:11 78° WSW 16:37:12 78° WSW
Cosmos 1898 Rocket 3.9 16:32:16 10° NNW 16:36:39 49° WNW 16:36:39 49° WNW
Cosmos 1400 Rocket 3.4 16:38:13 10° N 16:42:17 55° E 16:42:19 55° E
AQUA 3.6 16:40:24 10° N 16:45:11 83° WNW 16:45:18 81° WSW
Cosmos 1697 Rocket 3.7 16:45:54 32° WNW 16:46:42 33° WNW 16:51:47 10° N
STARLINK-1301 4.3 16:48:06 45° NNE 16:48:06 45° NNE 16:50:48 10° NE
Lacrosse 4 Rocket 1.7 16:43:09 10° NNW 16:46:44 62° NNW 16:46:44 62° NNW
NPP 3.6 16:42:59 10° N 16:48:20 64° WNW 16:48:57 59° WSW
STARLINK-1291 4.3 16:49:41 42° NNE 16:49:41 42° NNE 16:52:09 10° NE
CZ-4B R/B 3.5 16:43:31 10° N 16:48:45 74° WNW 16:49:23 65° SW
BREEZE-M DEB (TANK) 4.5 16:45:30 10° WNW 16:50:02 57° SW 17:04:28 10° SE
STARLINK-1264 4.3 16:52:03 44° NNE 16:52:03 44° NNE 16:54:37 10° NE
Cosmos 1814 Rocket 4.4 16:52:43 47° W 16:53:13 48° WNW 16:58:23 10° N
STARLINK-1267 4.2 16:54:26 45° NNE 16:54:26 45° NNE 16:57:06 10° NE
STARLINK-80 4.0 16:55:44 52° NNW 16:55:44 52° NNW 16:59:05 10° NE
Cosmos 1455 4.4 16:52:19 10° NW 16:53:19 15° NW 16:53:19 15° NW
STARLINK-1272 4.1 16:56:48 46° N 16:56:48 46° N 16:59:33 10° NE
Cosmos 2227 Rocket 3.3 16:52:46 10° NW 16:56:25 27° W 16:56:25 27° W
STARLINK-1207 4.1 16:59:12 46° N 16:59:12 46° N 17:02:03 10° NE
Cosmos 2285 Rocket 4.0 16:52:51 10° NNW 16:59:06 64° WSW 17:00:49 47° SSW
STARLINK-1266 4.0 17:01:38 46° N 17:01:38 46° N 17:04:34 10° NE
STARLINK-1029 4.2 17:02:24 39° NE 17:02:24 39° NE 17:04:31 10° NE
Cosmos 2298 Rocket 4.4 16:56:58 10° N 17:02:14 61° ENE 17:06:08 18° SSE
STARLINK-1246 4.4 16:59:20 10° NW 17:03:24 52° NE 17:07:26 10° ESE
STARLINK-1284 4.0 17:04:04 45° NNW 17:04:04 45° NNW 17:07:05 10° NE
SL-16 R/B 2.8 17:02:39 33° SSE 17:04:49 49° ESE 17:10:16 10° NNE
STARLINK-1258 4.1 17:05:16 42° NNW 17:05:16 42° NNW 17:08:11 10° NE
STARLINK-62 4.0 17:07:01 43° NNE 17:07:01 43° NNE 17:09:26 10° NE
Cosmos-2242 4.3 17:02:35 10° NNW 17:05:13 27° WNW 17:05:13 27° WNW
Cosmos 372 Rocket 3.9 17:01:27 10° NNW 17:06:37 84° ENE 17:09:01 33° SSE
Cosmos 1892 4.0 17:07:17 29° SE 17:08:21 34° E 17:11:49 10° NNE
STARLINK-1224 4.2 17:04:17 10° NW 17:08:22 58° NE 17:12:26 10° ESE
STARLINK-34 4.0 17:09:03 44° N 17:09:03 44° N 17:11:31 10° NE
STARLINK-1292 4.1 17:08:56 42° NNW 17:08:56 42° NNW 17:12:07 10° NNE
Cosmos 2221 3.4 17:04:43 10° N 17:08:55 47° E 17:11:14 24° SE
STARLINK-1306 4.4 17:10:07 39° SE 17:10:20 40° SE 17:14:16 10° ENE
IRS-P3 Rocket 4.5 17:05:30 10° NNE 17:10:51 85° WNW 17:12:26 47° SSW
Cosmos 1315 Rocket 4.0 17:07:10 10° N 17:10:51 38° ENE 17:13:01 21° SE
STARLINK-1274 4.1 17:11:24 40° NW 17:11:24 40° NW 17:14:41 10° NNE
CRYOSAT 2 4.3 17:06:29 10° N 17:11:22 70° W 17:12:20 54° SW
IRS-1C 4.2 17:06:25 10° NNE 17:11:46 75° ESE 17:13:49 39° S
STARLINK-1319 4.4 17:11:58 37° SE 17:12:12 38° SE 17:16:03 10° ENE
Nadezhda 3 Rocket 4.4 17:06:35 10° N 17:12:50 61° E 17:18:31 13° SSE
STARLINK-1225 4.0 17:09:15 10° NW 17:13:23 65° NE 17:17:28 10° SE
STARLINK-1289 4.2 17:13:52 38° NW 17:13:55 38° NW 17:17:14 10° NNE
Shenzhou-11 Module 4.0 17:16:03 22° ENE 17:16:03 22° ENE 17:17:05 10° ENE
BREEZE-M DEB (TANK) 3.7 17:12:49 10° NNW 17:14:40 23° NNE 17:16:38 10° E
STARLINK-1303 4.2 17:16:22 36° NW 17:16:30 36° NW 17:19:48 10° NNE
STARLINK-1277 4.2 17:16:46 41° SSE 17:17:11 42° SE 17:21:06 10° ENE
NOSS 2-1 (E) 3.0 17:17:26 66° ESE 17:17:26 66° ESE 17:20:49 10° NE
STARLINK-64 3.2 17:17:36 75° ESE 17:17:36 75° ESE 17:21:05 10° NE
STARLINK-1312 4.3 17:17:48 34° NW 17:17:58 34° NW 17:21:11 10° NNE
Uosat 12 SS-18 rocket 4.0 17:13:38 10° NNW 17:17:59 77° WSW 17:20:33 27° SSE
STARLINK-1230 3.8 17:14:12 10° NW 17:18:21 72° NE 17:22:27 10° SE
Cosmos 836 Rocket 4.5 17:16:39 42° S 17:18:30 81° ESE 17:23:48 10° NNE
SL-08 R/B 3.8 17:15:18 16° SSE 17:18:51 57° ENE 17:23:23 10° N
STARLINK-1299 3.8 17:20:28 52° S 17:21:06 60° SE 17:25:18 10° NE
ADEOS II 2.0 17:16:17 10° N 17:21:32 72° WNW 17:23:21 41° SSW
STARLINK-1276 4.1 17:21:32 44° SSE 17:22:07 47° SE 17:26:07 10° ENE
IRIDIUM 114 4.4 17:19:29 29° SSE 17:22:10 73° E 17:27:23 10° N
STARLINK-1243 3.6 17:19:11 10° NW 17:23:20 80° NE 17:27:27 10° SE
CZ-4C R/B 4.3 17:20:58 10° WNW 17:23:55 15° NW 17:27:07 10° N
SL-19 R/B 4.4 17:21:33 10° NNE 17:26:00 77° ESE 17:27:07 46° S
Meteor 2-17 Rocket 4.5 17:23:59 36° SSW 17:26:31 65° W 17:32:37 10° N
STARLINK-1305 3.9 17:26:19 45° S 17:27:05 53° SE 17:31:08 10° NE
STARLINK-1236 3.5 17:24:09 10° NW 17:28:17 89° NNE 17:32:26 10° SE
IRIDIUM 103 4.3 17:28:37 29° S 17:31:19 90° E 17:36:34 10° N
STARLINK-1262 3.8 17:31:06 46° S 17:32:03 60° SE 17:36:08 10° NE
Meteor 2-2 Rocket 4.4 17:26:46 10° N 17:32:50 80° E 17:38:39 11° S
Cosmos 2341 Rocket 4.3 17:28:41 17° S 17:33:42 66° E 17:40:00 10° NNE
STARLINK-61 4.2 17:33:34 35° SSE 17:34:27 41° SE 17:38:08 10° ENE
Cosmos 2360 Rocket 3.4 17:30:24 14° SSE 17:34:37 36° ESE 17:39:41 10° NE
IDEFIX/ARIANE 42P 3.5 17:29:54 10° NNE 17:34:56 45° E 17:39:16 14° SSE
ERS-2 3.1 17:32:59 12° SSE 17:36:12 47° ENE 17:39:44 10° N
STARLINK-1300 3.7 17:35:54 44° SSW 17:37:02 68° SE 17:41:09 10° NE
STARLINK-1269 3.4 17:34:07 10° NW 17:38:15 74° SW 17:42:22 10° SE
Cosmos 1295 Rocket 4.5 17:36:47 25° SSW 17:40:38 76° W 17:46:58 10° N
Resurs 1-4 Rocket 3.9 17:37:58 10° NNW 17:41:16 17° WNW 17:42:50 15° W
STARLINK-1295 3.6 17:40:39 42° SSW 17:41:58 76° SE 17:46:06 10° NE
Cosmos 1980 Rocket 3.7 17:40:10 17° W 17:42:23 22° WNW 17:46:41 10° N
STARLINK-1200 3.5 17:39:05 10° NW 17:43:12 66° SW 17:47:18 10° SE
STARLINK-1287 3.5 17:45:27 38° SW 17:46:57 84° SE 17:51:06 10° NE
STARLINK-1192 3.5 17:44:06 10° NW 17:48:11 59° SW 17:52:14 10° SSE
GEOS 3 Rocket 4.4 17:48:48 28° SW 17:49:19 28° WSW 17:53:46 10° WNW
BREEZE M DEB (TANK) 3.5 17:46:20 10° WNW 17:49:35 74° SW 18:00:10 10° SE
IRIDIUM 106 4.4 17:46:52 27° SSW 17:49:37 59° W 17:54:47 10° N
STARLINK-1244 3.7 17:49:06 10° NW 17:53:08 52° SW 17:57:09 10° SSE
H-2A R/B 2.5 17:48:58 10° SSE 17:53:14 64° ENE 17:57:39 10° N
STARLINK-1278 3.7 17:51:33 32° WSW 17:53:26 70° NW 17:57:41 10° NE
Skynet4D Del rocket 4.4 17:51:25 26° SW 17:53:31 32° S 17:58:29 10° SE
CZ-2D R/B 4.1 17:51:52 10° NW 17:54:04 13° WNW 17:55:53 11° W
STARLINK-1280 3.8 17:53:19 30° WSW 17:55:16 68° NW 17:59:31 10° NE
STARLINK-1302 3.6 17:55:01 31° SW 17:56:55 79° NW 18:01:04 10° NE
Cosmos 1825 2.7 17:54:57 15° S 17:57:51 57° E 18:01:33 10° NNE
STARLINK-1138 3.8 17:54:07 10° WNW 17:58:06 47° SW 18:02:04 10° SSE
Landsat 5 4.4 17:54:28 10° SSE 17:58:53 56° ENE 18:03:18 10° N
USA 234 4.3 17:53:57 10° ENE 17:59:53 36° SE 18:05:38 11° S
COBE Rocket 3.9 17:57:23 13° S 18:01:47 64° W 18:06:51 10° NNW
STARLINK-1273 3.7 17:59:47 28° WSW 18:01:52 71° NW 18:06:00 10° NE
ERBS 2.3 17:59:15 10° NW 18:02:30 52° SW 18:05:46 10° SSE
STARLINK-1143 3.9 17:59:07 10° WNW 18:03:02 42° SW 18:06:56 10° SSE
SL-16 R/B 4.1 18:04:02 14° W 18:04:41 15° W 18:07:58 10° WNW
Cosmos 2218 Rocket 4.2 18:00:03 10° S 18:06:19 74° E 18:12:42 10° N
STARLINK-1288 3.8 18:04:35 25° WSW 18:06:52 64° NW 18:10:59 10° NE
STARLINK-1241 4.1 18:04:12 10° WNW 18:08:01 37° SW 18:11:51 10° SSE
Cosmos 2263 Rocket 2.1 18:04:14 10° NNW 18:09:45 62° WSW 18:15:12 10° S
Cosmos 1869 4.2 18:07:32 10° NNW 18:10:54 29° W 18:12:23 22° SW
CZ-4C R/B 3.0 18:07:41 10° SSE 18:11:17 90° ESE 18:14:57 10° NNW
STARLINK-1308 3.9 18:09:24 22° WSW 18:11:54 56° NW 18:15:59 10° NE
Cosmos 2058 3.9 18:10:26 22° WSW 18:12:15 30° WNW 18:16:00 10° NNW
STARLINK-1239 4.2 18:09:14 10° WNW 18:12:57 33° SW 18:16:41 10° SSE
SL-8 Rocket 4.0 18:06:53 10° S 18:13:11 81° W 18:19:29 10° N
CZ-2D R/B 4.0 18:10:30 10° N 18:14:31 44° WNW 18:17:20 18° SW
USA 229 DEB 4.0 18:07:34 10° NNW 18:15:01 85° ENE 18:22:43 10° SSE
USA 229 4.0 18:07:41 10° NNW 18:15:07 85° ENE 18:22:48 10° SSE
Cosmos 1076 Rocket 4.5 18:13:18 20° SW 18:15:28 31° WNW 18:19:23 10° NNW
ARIANE 5 R/B 3.3 18:11:45 10° N 18:16:14 33° WNW 18:19:23 17° SW
Cosmos 2322 Rocket 2.6 18:13:16 18° SW 18:17:07 46° WNW 18:22:32 10° N
STARLINK-1240 4.4 18:14:16 10° WNW 18:17:54 30° SW 18:21:30 10° S
CZ-4B R/B 3.9 18:16:35 10° SE 18:19:01 22° ENE 18:21:29 10° NNE
NOSS 3-1 (C) 4.2 18:11:20 10° NNW 18:19:17 84° WSW 18:28:09 10° SSE
CZ-2C R/B 2.8 18:15:45 10° N 18:19:26 59° WNW 18:22:23 15° SSW
STARLINK-1304 4.2 18:18:54 17° WSW 18:21:48 47° NW 18:25:49 10° NE
Cosmos 2237 4.2 18:22:46 13° SSW 18:27:56 73° WNW 18:33:40 10° NNE
Cosmos 1408 3.6 18:28:15 16° SW 18:30:32 29° WNW 18:33:47 10° NNW
Meteor 1-28 Rocket 4.3 18:29:15 14° SW 18:31:38 25° W 18:34:47 10° NW
Cosmos 2151 3.3 18:29:35 11° SSW 18:33:28 48° W 18:37:37 10° N
STARLINK-24 3.7 18:34:40 12° SW 18:38:17 66° SE 18:42:16 10° NE
STARLINK-1049 4.4 18:35:09 10° SSW 18:39:06 45° SE 18:43:04 10° ENE
STARLINK-54 3.4 18:37:18 12° SW 18:40:35 68° SE 18:44:11 10° NE
COSMOS 2428 3.9 18:36:34 10° S 18:41:51 41° ESE 18:47:08 10° NE
STARLINK-81 3.7 18:38:39 11° SW 18:42:13 63° SE 18:45:58 10° NE
Cosmos 1606 3.1 18:38:32 10° N 18:42:17 65° E 18:46:01 10° SSE
STARLINK-1051 4.2 18:40:02 10° SSW 18:44:03 51° SE 18:48:04 10° NE
STARLINK-77 3.6 18:41:47 10° SW 18:45:29 69° SE 18:49:14 10° NE
STARLINK-79 3.4 18:44:12 10° SW 18:47:49 73° SE 18:51:27 10° NE
Cosmos 1933 3.9 18:44:00 10° N 18:48:01 61° E 18:51:59 10° SSE
SL-16 R/B 3.7 18:44:54 10° WSW 18:49:09 21° WNW 18:53:26 10° N
Shenzhou-11 Module 3.8 18:47:29 10° WNW 18:49:21 19° N 18:51:14 10° NE
Centaur D-1A AC-31 3.9 17:42:00 10° W 18:49:47 55° SSW 18:56:26 10° SE
Cosmos 1328 Rocket 3.7 18:46:27 10° N 18:50:51 78° E 18:55:12 10° S
STARLINK-50 3.5 18:47:21 10° SW 18:51:16 82° SE 18:55:15 10° NE
STARLINK-78 3.4 18:48:16 10° SW 18:52:01 82° SE 18:55:49 10° NE
STARLINK-57 3.4 18:50:02 10° SW 18:53:47 89° WNW 18:57:35 10° NE
STARLINK-1028 3.9 18:49:53 10° SW 18:53:58 65° SE 18:58:05 10° NE
STARLINK-49 3.4 18:52:33 10° SW 18:56:21 90° NNW 19:00:10 10° NE
Starlink 7 placeholder 3.7 18:55:18 10° NNW 18:57:12 35° NE 18:59:10 10° ESE
Cosmos 1538 Rocket 4.1 18:52:28 10° SSW 18:57:45 68° WNW 19:03:07 10° NNE
STARLINK-27 3.4 18:54:16 10° SW 18:58:04 86° NW 19:01:54 10° NE
STARLINK-74 3.4 18:54:48 10° SW 18:58:35 86° NW 19:02:22 10° NE
STARLINK-1021 3.8 18:54:50 10° SW 18:58:56 73° SE 19:03:04 10° NE
PSLV R/B 3.8 18:56:47 10° N 19:00:49 48° WNW 19:04:50 10° SSW
